Historique des stations

Station météo de Digny

Altitude de la station : 230 m







Données météorologiques pour le 19/05/2022
Date
Heure
Températures Humidité Point de rosée Vitesse
du vent
Direction Rafales Windchill Pression Pluviométrie
Cumul
Date
Heure
Températures Humidité Point de rosée Vitesse
du vent
Direction Rafales Windchill Pression Pluviométrie
Cumul
19/05/2022 11:4817.1 °C87 %15.0 °C11 km/h--16.7 1019 hPa-
19/05/2022 11:4517.2 °C86 %15.0 °C11 km/hO32 km/h16.7 1019 hPa-
19/05/2022 11:3317.3 °C86 %15.0 °C13 km/h--16.7 1019 hPa-
19/05/2022 11:3017.3 °C86 %15.0 °C11 km/hO32 km/h16.7 1019 hPa-
19/05/2022 11:1717.7 °C85 %15.0 °C14 km/h--16.7 1019 hPa-
19/05/2022 11:1517.7 °C86 %15.6 °C11 km/hO32 km/h17.2 1019 hPa-
19/05/2022 11:0217.0 °C86 %14.4 °C8 km/h--17.2 1018 hPa-
19/05/2022 11:0017.0 °C85 %14.4 °C16 km/hO32 km/h15.6 1018 hPa-
19/05/2022 10:4817.2 °C86 %15.0 °C13 km/h--16.7 1018 hPa-
19/05/2022 10:4517.1 °C86 %15.0 °C8 km/hONO32 km/h17.2 1018 hPa-
19/05/2022 10:3317.1 °C85 %14.4 °C18 km/h--15.6 1019 hPa-
19/05/2022 10:3017.1 °C85 %14.4 °C18 km/hNNO32 km/h15.6 1019 hPa-
19/05/2022 10:1817.8 °C84 %15.0 °C19 km/h--16.1 1018 hPa-
19/05/2022 10:1517.9 °C85 %15.6 °C24 km/hO32 km/h15.0 1019 hPa-
19/05/2022 10:0217.4 °C84 %15.0 °C24 km/h--14.4 1018 hPa-
19/05/2022 10:0017.4 °C84 %15.0 °C18 km/hO32 km/h15.6 1018 hPa-
19/05/2022 09:4817.8 °C83 %15.0 °C19 km/h--16.1 1018 hPa-
19/05/2022 09:4517.9 °C83 %15.0 °C16 km/hO23 km/h16.1 1018 hPa-
19/05/2022 09:3318.8 °C82 %15.6 °C18 km/h--17.2 1018 hPa-
19/05/2022 09:3018.8 °C82 %15.6 °C8 km/hO21 km/h18.9 1018 hPa-
19/05/2022 09:1819.1 °C82 %16.1 °C11 km/h--18.3 1017 hPa-
19/05/2022 09:1519.2 °C81 %16.1 °C11 km/hONO21 km/h18.9 1017 hPa-
19/05/2022 09:0318.8 °C85 %16.1 °C14 km/h--17.8 1017 hPa-
19/05/2022 09:0018.5 °C86 %16.1 °C10 km/hO21 km/h18.3 1017 hPa-
19/05/2022 08:4817.8 °C88 %15.6 °C5 km/h--17.8 1017 hPa-
19/05/2022 08:4517.6 °C88 %15.6 °C14 km/hOSO21 km/h16.7 1017 hPa-
19/05/2022 08:3317.1 °C90 %15.6 °C10 km/h--17.2 1017 hPa-
19/05/2022 08:3017.0 °C91 %15.6 °C8 km/hO21 km/h17.2 1016 hPa-
19/05/2022 08:1816.5 °C93 %15.6 °C6 km/h--16.7 1016 hPa-
19/05/2022 08:1516.4 °C94 %15.6 °C6 km/hNO21 km/h16.7 1016 hPa-
19/05/2022 08:0315.9 °C95 %15.0 °C5 km/h--16.1 1016 hPa-
19/05/2022 08:0015.6 °C95 %15.0 °C5 km/hONO21 km/h15.6 1016 hPa-
19/05/2022 07:4815.3 °C94 %14.4 °C3 km/h--15.6 1016 hPa-
19/05/2022 07:4515.3 °C94 %14.4 °C2 km/hNO21 km/h15.6 1016 hPa-
19/05/2022 07:3315.3 °C95 %14.4 °C3 km/h--15.6 1016 hPa-
19/05/2022 07:3015.3 °C95 %14.4 °C3 km/hNO21 km/h15.6 1016 hPa-
19/05/2022 07:1815.4 °C95 %14.4 °C3 km/h--15.6 1016 hPa-
19/05/2022 07:1515.4 °C95 %14.4 °C5 km/hONO21 km/h15.6 1016 hPa-
19/05/2022 07:0315.6 °C96 %15.0 °C6 km/h--15.6 1016 hPa-
19/05/2022 07:0015.7 °C96 %15.0 °C6 km/hNO21 km/h15.6 1016 hPa-
19/05/2022 06:4815.8 °C96 %15.0 °C5 km/h--15.6 1016 hPa-
19/05/2022 06:4515.8 °C96 %15.0 °C5 km/hNO21 km/h15.6 1016 hPa-
19/05/2022 06:3315.8 °C96 %15.0 °C16 km/h--13.9 1015 hPa-
19/05/2022 06:3015.8 °C96 %15.0 °C8 km/hONO21 km/h16.1 1015 hPa-
19/05/2022 06:1816.1 °C96 %15.6 °C10 km/h--16.1 1015 hPa-
19/05/2022 06:1516.1 °C96 %15.6 °C14 km/hO21 km/h15.0 1015 hPa-
19/05/2022 06:0316.2 °C96 %15.6 °C13 km/h--15.6 1015 hPa-
19/05/2022 06:0016.3 °C96 %15.6 °C13 km/hONO18 km/h15.6 1015 hPa-
19/05/2022 05:4816.1 °C95 %15.6 °C6 km/h--16.1 1015 hPa-
19/05/2022 05:4516.1 °C95 %15.6 °C6 km/hO11 km/h16.1 1015 hPa-
19/05/2022 05:3316.2 °C95 %15.6 °C2 km/h--16.1 1015 hPa-
19/05/2022 05:3016.3 °C95 %15.6 °C8 km/hONO11 km/h16.1 1015 hPa-
19/05/2022 05:1816.4 °C95 %15.6 °C5 km/h--16.7 1015 hPa-
19/05/2022 05:1516.3 °C95 %15.6 °C8 km/hONO8 km/h16.1 1015 hPa-
19/05/2022 05:0316.3 °C95 %15.6 °C---16.1 1015 hPa-
19/05/2022 05:0016.3 °C95 %15.6 °C-SE8 km/h16.1 1015 hPa-
19/05/2022 04:4816.5 °C95 %15.6 °C---16.7 1014 hPa-
19/05/2022 04:4516.5 °C95 %15.6 °C-SE8 km/h16.7 1015 hPa-
19/05/2022 04:3216.4 °C94 %15.6 °C---16.7 1014 hPa-
19/05/2022 04:2916.4 °C94 %15.6 °C-ESE8 km/h16.7 1014 hPa-
19/05/2022 04:1716.6 °C94 %15.6 °C---16.7 1014 hPa-
19/05/2022 04:1416.6 °C94 %15.6 °C-ESE8 km/h16.7 1014 hPa-
19/05/2022 04:0216.7 °C93 %15.6 °C---16.7 1014 hPa-
19/05/2022 03:5916.8 °C93 %15.6 °C-ESE8 km/h16.7 1014 hPa-
19/05/2022 03:4717.1 °C93 %16.1 °C---17.2 1014 hPa-
19/05/2022 03:4517.2 °C93 %16.1 °C-ESE8 km/h17.2 1014 hPa-
19/05/2022 03:3217.2 °C94 %16.1 °C---17.2 1014 hPa-
19/05/2022 03:3017.2 °C94 %16.1 °C-SE8 km/h17.2 1014 hPa-
19/05/2022 03:1716.9 °C94 %16.1 °C---17.2 1015 hPa-
19/05/2022 03:1516.9 °C93 %16.1 °C-SE8 km/h17.2 1015 hPa-
19/05/2022 03:0216.9 °C92 %15.6 °C---17.2 1014 hPa-
19/05/2022 03:0017.1 °C92 %15.6 °C-SE8 km/h17.2 1014 hPa-
19/05/2022 02:4717.2 °C93 %16.1 °C---17.2 1015 hPa-
19/05/2022 02:4517.2 °C93 %16.1 °C-SE8 km/h17.2 1015 hPa-
19/05/2022 02:3617.2 °C93 %16.1 °C---17.2 1015 hPa-
19/05/2022 02:3017.1 °C93 %16.1 °C-SE8 km/h17.2 1015 hPa-
19/05/2022 02:2017.2 °C93 %16.1 °C2 km/h--17.2 1015 hPa-
19/05/2022 02:1517.2 °C92 %16.1 °C3 km/hSE8 km/h17.2 1015 hPa-
19/05/2022 02:0517.2 °C91 %15.6 °C3 km/h--17.2 1015 hPa-
19/05/2022 02:0017.4 °C90 %16.1 °C3 km/hSE8 km/h17.2 1015 hPa-
19/05/2022 01:5017.7 °C90 %16.1 °C---17.8 1015 hPa-
19/05/2022 01:4517.7 °C90 %16.1 °C6 km/hSE8 km/h17.8 1015 hPa-
19/05/2022 01:3217.7 °C90 %16.1 °C3 km/h--17.8 1015 hPa-
19/05/2022 01:3017.7 °C90 %16.1 °C2 km/hSE8 km/h17.8 1015 hPa-
19/05/2022 01:1717.5 °C91 %16.1 °C3 km/h--17.8 1015 hPa-
19/05/2022 01:1517.5 °C91 %16.1 °C3 km/hSSE8 km/h17.8 1015 hPa-
19/05/2022 01:0217.6 °C90 %16.1 °C2 km/h--17.8 1015 hPa-
19/05/2022 01:0017.6 °C90 %16.1 °C3 km/hSE8 km/h17.8 1015 hPa-
19/05/2022 00:4717.9 °C88 %16.1 °C2 km/h--17.8 1015 hPa-
19/05/2022 00:4517.9 °C89 %16.1 °C2 km/hSE6 km/h17.8 1015 hPa-
19/05/2022 00:3217.7 °C89 %16.1 °C2 km/h--17.8 1015 hPa-
19/05/2022 00:3017.7 °C89 %16.1 °C-SE6 km/h17.8 1015 hPa-
19/05/2022 00:1717.8 °C89 %16.1 °C3 km/h--17.8 1015 hPa-
19/05/2022 00:1517.8 °C89 %16.1 °C2 km/hESE6 km/h17.8 1015 hPa-
19/05/2022 00:0317.8 °C89 %16.1 °C---17.8 1015 hPa-
19/05/2022 00:0017.8 °C89 %16.1 °C---17.8 1015 hPa-


Minima :

Température : 15.3 °C
Humidité : 81 %
Point de rosée : 14.4 °C
Vent moyen : 2 km/h
Windchill : 13.9
Pression atm. : 1014 hPa
Maxima :

Température : 19.2 °C
Humidité : 96 %
Point de rosée : 16.1 °C
Vent moyen : 24 km/h
Windchill : 18.9
Pression atm. : 1019 hPa
Rafales max : 32 km/h
Cumul de pluie sur 24H : 0 mm

Digny est une commune du département Eure-et-Loir (28).
La station météorologique du réseau de l'association la plus proche de Digny est celle de Le Mesnil-Thomas



Icône Facebook Association Météo Centre Icône Twitter Association Météo Centre Icône Chaîne Youtube Association Météo Centre Icône contact Association Météo Centre Icône Insta Association Météo Centre